Weather History for KGON - October, 2012

Change the Weather History Date:

Friday, October 5, 2012

  Actual Average Record
Temperature  
Mean Temperature 65 °F -  
Max Temperature 72 °F 66 °F 81 °F (1967)
Min Temperature 59 °F 46 °F 30 °F (1974)
Growing Degree Days 15 (Base 50)    
Moisture  
Dew Point 61 °F    
Average Humidity 91    
Maximum Humidity 100    
Minimum Humidity 70    
Precipitation  
Precipitation 0.00 in - - ()
Sea Level Pressure  
Sea Level Pressure 30.01 in    
Wind  
Wind Speed 3 mph (WNW)    
Max Wind Speed 14 mph    
Max Gust Speed -    
Visibility 4 miles    
Events Fog    
Averages and records for this station are not official NWS values.
T = Trace of Precipitation, MM = Missing Value Source: NWS Daily Summary

Daily Weather History Graph

Daily Weather History Graph

Search for Another Location

Airport or City:

Trip Planner

Search our weather history database for the weather conditions in past years. The results will help you decide how hot, cold, wet, or windy it might be!

Date:

Astronomy

Oct. 05, 2012 Rise Set
Actual Time 6:49 AM EDT 6:22 PM EDT
Civil Twilight 6:22 AM EDT 6:50 PM EDT
Nautical Twilight 5:50 AM EDT 7:22 PM EDT
Astronomical Twilight 5:17 AM EDT 7:54 PM EDT
Moon 9:40 PM EDT (10/5) 11:57 AM EDT (10/5)
Length of Visible Light 12h 28m
Length of Day
11h 32m
Waning Gibbous, 74% of the Moon is Illuminated
Oct 5
Waning Gibbous
Oct 8
Last Quarter
Oct 15
New
Oct 21
First Quarter
Oct 29
Full

Hourly Weather History & Observations

Time (EDT) Temp. Dew Point Humidity Pressure Visibility Wind Dir Wind Speed Gust Speed Precip Events Conditions
12:08 AM 66.2 °F 64.4 °F 94% 30.03 in 4.0 mi Calm Calm - N/A   Overcast
12:56 AM 66.0 °F 64.0 °F 93% 30.04 in 3.0 mi NW 4.6 mph - N/A   Overcast
1:15 AM 66.2 °F 64.4 °F 94% 30.04 in 2.5 mi NW 3.5 mph - N/A   Overcast
1:42 AM 66.2 °F 64.4 °F 94% 30.03 in 3.0 mi Calm Calm - N/A   Overcast
1:52 AM 66.2 °F 64.4 °F 94% 30.03 in 5.0 mi Calm Calm - N/A   Overcast
1:56 AM 66.0 °F 64.0 °F 93% 30.03 in 5.0 mi Calm Calm - N/A   Overcast
2:56 AM 64.9 °F 63.0 °F 93% 30.02 in 7.0 mi West 4.6 mph - N/A   Overcast
3:56 AM 63.0 °F 61.0 °F 93% 30.01 in 5.0 mi WNW 4.6 mph - N/A   Mostly Cloudy
4:28 AM 62.6 °F 60.8 °F 94% 30.01 in 4.0 mi NNW 4.6 mph - N/A   Mostly Cloudy
4:56 AM 62.1 °F 61.0 °F 96% 30.02 in 5.0 mi WNW 3.5 mph - N/A   Overcast
5:23 AM 62.6 °F 60.8 °F 94% 30.02 in 1.8 mi NW 4.6 mph - N/A   Overcast
5:39 AM 60.8 °F 60.8 °F 100% 30.02 in 0.8 mi NW 4.6 mph - N/A   Overcast
5:49 AM 62.6 °F 60.8 °F 94% 30.02 in 1.8 mi NNW 4.6 mph - N/A   Overcast
5:56 AM 62.1 °F 60.1 °F 93% 30.02 in 2.5 mi NNW 3.5 mph - N/A   Overcast
6:11 AM 62.6 °F 60.8 °F 94% 30.03 in 1.5 mi NNW 5.8 mph - N/A   Overcast
6:25 AM 60.8 °F 60.8 °F 100% 30.03 in 0.5 mi NNW 4.6 mph - N/A Fog Fog
6:42 AM 60.8 °F 60.8 °F 100% 30.04 in 1.0 mi Calm Calm - N/A   Mist
6:54 AM 60.8 °F 59.0 °F 94% 30.04 in 0.5 mi NNW 3.5 mph - N/A Fog Fog
6:56 AM 61.0 °F 59.0 °F 93% 30.04 in 0.5 mi NNW 3.5 mph - N/A Fog Fog
7:03 AM 60.8 °F 60.8 °F 100% 30.04 in 0.2 mi NW 3.5 mph - N/A Fog Fog
7:12 AM 60.8 °F 60.8 °F 100% 30.05 in 0.8 mi NW 5.8 mph - N/A   Overcast
7:23 AM 60.8 °F 60.8 °F 100% 30.05 in 1.0 mi WNW 4.6 mph - N/A   Overcast
7:37 AM 60.8 °F 60.8 °F 100% 30.05 in 0.8 mi NNW 3.5 mph - N/A   Overcast
7:56 AM 61.0 °F 60.1 °F 97% 30.05 in 0.5 mi Calm Calm - N/A Fog Fog
8:03 AM 60.8 °F 60.8 °F 100% 30.05 in 0.2 mi Calm Calm - N/A Fog Fog
8:11 AM 60.8 °F 60.8 °F 100% 30.05 in 0.8 mi Calm Calm - N/A   Overcast
8:16 AM 60.8 °F 60.8 °F 100% 30.05 in 2.0 mi Calm Calm - N/A   Overcast
8:25 AM 60.8 °F 60.8 °F 100% 30.05 in 4.0 mi Calm Calm - N/A   Overcast
8:56 AM 63.0 °F 61.0 °F 93% 30.04 in 4.0 mi Calm Calm - N/A   Scattered Clouds
9:56 AM 64.9 °F 62.1 °F 90% 30.04 in 6.0 mi SSW 6.9 mph - N/A   Scattered Clouds
10:56 AM 66.9 °F 63.0 °F 87% 30.03 in 8.0 mi SSW 8.1 mph - N/A   Clear
11:56 AM 68.0 °F 63.0 °F 84% 30.01 in 7.0 mi SW 11.5 mph - N/A   Clear
12:56 PM 70.0 °F 63.0 °F 78% 30.00 in 9.0 mi SW 10.4 mph - N/A   Clear
1:56 PM 71.1 °F 63.0 °F 75% 29.98 in 9.0 mi WSW 13.8 mph - N/A   Clear
2:56 PM 71.1 °F 63.0 °F 75% 29.96 in 8.0 mi SW 10.4 mph - N/A   Clear
3:56 PM 71.1 °F 61.0 °F 70% 29.95 in 8.0 mi SW 8.1 mph - N/A   Clear
4:56 PM 70.0 °F 60.1 °F 71% 29.95 in 8.0 mi WSW 8.1 mph - N/A   Clear
5:56 PM 68.0 °F 60.1 °F 76% 29.96 in 7.0 mi WSW 6.9 mph - N/A   Clear
6:56 PM 66.0 °F 60.1 °F 81% 29.96 in 8.0 mi West 5.8 mph - N/A   Clear
7:56 PM 64.9 °F 60.1 °F 84% 29.96 in 8.0 mi WSW 3.5 mph - N/A   Clear
8:56 PM 62.1 °F 59.0 °F 90% 29.96 in 5.0 mi Calm Calm - N/A   Clear
9:56 PM 64.9 °F 61.0 °F 87% 29.96 in 5.0 mi Calm Calm - N/A   Clear
10:19 PM 60.8 °F 59.0 °F 94% 29.96 in 2.0 mi Calm Calm - N/A   Clear
10:33 PM 60.8 °F 57.2 °F 88% 29.95 in 5.0 mi Calm Calm - N/A   Clear
10:56 PM 61.0 °F 57.9 °F 90% 29.95 in 5.0 mi Calm Calm - N/A   Clear
11:24 PM 59.0 °F 57.2 °F 94% 29.94 in 1.5 mi Calm Calm - N/A   Clear
11:35 PM 59.0 °F 57.2 °F 94% 29.94 in 3.0 mi North 3.5 mph - N/A   Clear
11:54 PM 60.8 °F 57.2 °F 88% 29.94 in 2.0 mi Calm Calm - N/A   Clear
11:56 PM 60.1 °F 57.9 °F 93% 29.94 in 2.0 mi Calm Calm - N/A   Clear